Hourly Weather Murghob

Today, 20 September, Monday

Time Temperature Precipitation Wind Pressure Humidity
00:00 +9°C° 0 mm 2 mps 466 mmHg 22%
01:00 +8°C° 0 mm 2 mps 466 mmHg 26%
02:00 +8°C° 0 mm 1 mps 465 mmHg 29%
03:00 +7°C° 0 mm 1 mps 465 mmHg 32%
04:00 +6°C° 0 mm 1 mps 465 mmHg 34%
05:00 +6°C° 0 mm 1 mps 464 mmHg 36%
06:00 +7°C° 0 mm 1 mps 465 mmHg 34%
07:00 +7°C° 0 mm 1 mps 466 mmHg 31%
08:00 +7°C° 0 mm 0 mps 466 mmHg 29%
09:00 +10°C° 0 mm 1 mps 467 mmHg 24%
10:00 +11°C° 0 mm 1 mps 467 mmHg 20%
11:00 +13°C° 0 mm 2 mps 468 mmHg 15%
12:00 +13°C° 0 mm 3 mps 468 mmHg 13%
13:00 +14°C° 0 mm 4 mps 468 mmHg 11%
14:00 +15°C° 0 mm 5 mps 468 mmHg 9%
15:00 +14°C° 0 mm 5 mps 468 mmHg 9%
16:00 +14°C° 0 mm 6 mps 467 mmHg 9%
17:00 +14°C° 0 mm 6 mps 467 mmHg 9%
18:00 +13°C° 0 mm 5 mps 467 mmHg 11%
19:00 +11°C° 0 mm 3 mps 467 mmHg 14%
20:00 +10°C° 0 mm 2 mps 466 mmHg 17%
21:00 +9°C° 0 mm 2 mps 466 mmHg 21%
22:00 +8°C° 0 mm 2 mps 466 mmHg 24%
23:00 +8°C° 0 mm 1 mps 465 mmHg 28%

Tomorrow, 21 September, Tuesday

Time Temperature Precipitation Wind Pressure Humidity
00:00 +8°C° 0 mm 1 mps 465 mmHg 32%
01:00 +7°C° 0 mm 1 mps 465 mmHg 35%
02:00 +6°C° 0 mm 1 mps 464 mmHg 39%
03:00 +6°C° 0 mm 1 mps 464 mmHg 41%
04:00 +5°C° 0 mm 1 mps 463 mmHg 43%
05:00 +4°C° 0 mm 0 mps 463 mmHg 46%
06:00 +5°C° 0 mm 1 mps 464 mmHg 42%
07:00 +6°C° 0 mm 1 mps 464 mmHg 38%
08:00 +7°C° 0 mm 1 mps 465 mmHg 35%
09:00 +8°C° 0 mm 1 mps 466 mmHg 28%
10:00 +8°C° 0 mm 2 mps 466 mmHg 22%
11:00 +10°C° 0 mm 2 mps 466 mmHg 15%
12:00 +10°C° 0 mm 3 mps 466 mmHg 13%
13:00 +11°C° 0 mm 4 mps 467 mmHg 11%
14:00 +12°C° 0 mm 5 mps 467 mmHg 8%
15:00 +12°C° 0 mm 5 mps 466 mmHg 8%
16:00 +12°C° 0 mm 5 mps 466 mmHg 8%
17:00 +12°C° 0 mm 5 mps 466 mmHg 7%
18:00 +10°C° 0 mm 5 mps 466 mmHg 9%
19:00 +10°C° 0 mm 4 mps 465 mmHg 11%
20:00 +8°C° 0 mm 4 mps 465 mmHg 13%
21:00 +8°C° 0 mm 3 mps 465 mmHg 15%
22:00 +7°C° 0 mm 2 mps 464 mmHg 16%
23:00 +7°C° 0 mm 2 mps 464 mmHg 18%

Day after tomorrow, 22 September, Wednesday

Time Temperature Precipitation Wind Pressure Humidity
00:00 +6°C° 0 mm 2 mps 463 mmHg 19%
01:00 +5°C° 0 mm 2 mps 463 mmHg 20%
02:00 +6°C° 0 mm 1 mps 462 mmHg 21%
03:00 +4°C° 0 mm 2 mps 462 mmHg 21%
04:00 +3°C° 0 mm 2 mps 461 mmHg 22%
05:00 +3°C° 0 mm 2 mps 461 mmHg 22%
06:00 +4°C° 0 mm 2 mps 462 mmHg 20%
07:00 +5°C° 0 mm 2 mps 463 mmHg 18%
08:00 +5°C° 0 mm 2 mps 463 mmHg 16%
09:00 +7°C° 0 mm 3 mps 464 mmHg 13%
10:00 +7°C° 0 mm 4 mps 464 mmHg 10%
11:00 +9°C° 0 mm 5 mps 465 mmHg 7%
12:00 +9°C° 0 mm 6 mps 465 mmHg 7%
13:00 +10°C° 0 mm 7 mps 465 mmHg 6%
14:00 +11°C° 0 mm 9 mps 465 mmHg 6%
15:00 +10°C° 0 mm 8 mps 465 mmHg 6%
16:00 +10°C° 0 mm 8 mps 465 mmHg 7%
17:00 +9°C° 0 mm 8 mps 465 mmHg 7%
18:00 +8°C° 0 mm 6 mps 465 mmHg 9%
19:00 +7°C° 0 mm 4 mps 464 mmHg 12%
20:00 +7°C° 0 mm 2 mps 464 mmHg 14%
21:00 +6°C° 0 mm 2 mps 464 mmHg 15%
22:00 +6°C° 0 mm 2 mps 463 mmHg 17%
23:00 +5°C° 0 mm 2 mps 463 mmHg 19%

23 September, Thursday

Time Temperature Precipitation Wind Pressure Humidity
00:00 +5°C° 0 mm 1 mps 463 mmHg 20%
01:00 +4°C° 0 mm 1 mps 462 mmHg 21%
02:00 +4°C° 0 mm 1 mps 462 mmHg 23%
03:00 +3°C° 0 mm 1 mps 461 mmHg 24%
04:00 +3°C° 0 mm 1 mps 461 mmHg 24%
05:00 +2°C° 0 mm 1 mps 461 mmHg 25%
06:00 +3°C° 0 mm 1 mps 462 mmHg 23%
07:00 +4°C° 0 mm 1 mps 463 mmHg 21%
08:00 +5°C° 0 mm 1 mps 464 mmHg 19%
09:00 +5°C° 0 mm 2 mps 464 mmHg 17%
10:00 +7°C° 0 mm 3 mps 465 mmHg 14%
11:00 +8°C° 0 mm 3 mps 466 mmHg 11%
12:00 +8°C° 0 mm 4 mps 466 mmHg 10%
13:00 +9°C° 0 mm 5 mps 466 mmHg 9%
14:00 +10°C° 0 mm 5 mps 466 mmHg 7%
15:00 +10°C° 0 mm 5 mps 466 mmHg 7%
16:00 +10°C° 0 mm 5 mps 466 mmHg 7%
17:00 +9°C° 0 mm 5 mps 466 mmHg 7%
18:00 +10°C° 0 mm 4 mps 466 mmHg 9%
19:00 +9°C° 0 mm 3 mps 466 mmHg 10%
20:00 +8°C° 0 mm 2 mps 465 mmHg 12%
21:00 +7°C° 0 mm 2 mps 465 mmHg 14%
22:00 +6°C° 0 mm 2 mps 465 mmHg 15%
23:00 +5°C° 0 mm 2 mps 464 mmHg 17%

24 September, Friday

Time Temperature Precipitation Wind Pressure Humidity
00:00 +5°C° 0 mm 2 mps 464 mmHg 18%
01:00 +4°C° 0 mm 2 mps 464 mmHg 19%
02:00 +3°C° 0 mm 2 mps 463 mmHg 20%
03:00 +3°C° 0 mm 2 mps 463 mmHg 20%
04:00 +2°C° 0 mm 2 mps 463 mmHg 21%
05:00 +2°C° 0 mm 2 mps 462 mmHg 22%
06:00 +3°C° 0 mm 2 mps 463 mmHg 20%
07:00 +4°C° 0 mm 2 mps 464 mmHg 18%
08:00 +5°C° 0 mm 2 mps 465 mmHg 16%
09:00 +6°C° 0 mm 2 mps 466 mmHg 13%
10:00 +8°C° 0 mm 3 mps 467 mmHg 11%
11:00 +8°C° 0 mm 4 mps 467 mmHg 8%
12:00 +9°C° 0 mm 5 mps 467 mmHg 7%
13:00 +10°C° 0 mm 6 mps 468 mmHg 6%
14:00 +11°C° 0 mm 6 mps 468 mmHg 5%
15:00 +10°C° 0 mm 6 mps 468 mmHg 5%
16:00 +10°C° 0 mm 6 mps 468 mmHg 6%
17:00 +10°C° 0 mm 6 mps 468 mmHg 6%
18:00 +8°C° 0 mm 5 mps 467 mmHg 8%
19:00 +8°C° 0 mm 3 mps 467 mmHg 11%
20:00 +7°C° 0 mm 2 mps 467 mmHg 13%
21:00 +6°C° 0 mm 2 mps 467 mmHg 15%
22:00 +7°C° 0 mm 1 mps 466 mmHg 17%
23:00 +6°C° 0 mm 1 mps 466 mmHg 19%

25 September, Saturday

Time Temperature Precipitation Wind Pressure Humidity
00:00 +5°C° 0 mm 1 mps 466 mmHg 20%
01:00 +5°C° 0 mm 1 mps 465 mmHg 21%
02:00 +4°C° 0 mm 1 mps 465 mmHg 22%
03:00 +3°C° 0 mm 1 mps 464 mmHg 23%
04:00 +3°C° 0 mm 1 mps 464 mmHg 24%
05:00 +1°C° 0 mm 0 mps 464 mmHg 25%
06:00 +3°C° 0 mm 0 mps 465 mmHg 22%
07:00 +4°C° 0 mm 0 mps 466 mmHg 20%
08:00 +5°C° 0 mm 0 mps 467 mmHg 17%
09:00 +6°C° 0 mm 0 mps 468 mmHg 15%
10:00 +7°C° 0 mm 0 mps 468 mmHg 13%
11:00 +8°C° 0 mm 0 mps 469 mmHg 11%
12:00 +10°C° 0 mm 1 mps 469 mmHg 10%
13:00 +11°C° 0 mm 1 mps 469 mmHg 9%
14:00 +12°C° 0 mm 1 mps 469 mmHg 8%
15:00 +12°C° 0 mm 1 mps 469 mmHg 8%
16:00 +12°C° 0 mm 2 mps 469 mmHg 8%
17:00 +12°C° 0 mm 2 mps 469 mmHg 7%
18:00 +10°C° 0 mm 2 mps 468 mmHg 9%
19:00 +9°C° 0 mm 2 mps 468 mmHg 11%
20:00 +8°C° 0 mm 2 mps 468 mmHg 13%
21:00 +8°C° 0 mm 2 mps 468 mmHg 16%
22:00 +7°C° 0 mm 2 mps 468 mmHg 18%
23:00 +6°C° 0 mm 2 mps 467 mmHg 20%
Show more

We Need Your Consent

Meteoprog and our Service Providers may store and access personal data such as cookies, device identifiers or other similar technologies on your device and process such data to personalise content and ads, as well as provide social media features and to analyse the traffic.

  • Store and/or access information on your device

    Cookies, device identifiers or other information can be stored or accessed on your device for the purposes indicated above.

  • Personalised ads and content, ad and content measurement, audience insights, and products development

    Ads and content can be personalised based on a profile. More data can be added to better personalise ads and content. Ad and content performance can be measured. Insights about the audience who saw the ads and content can be derived. Such data can be used to develop or improve user’s experience, systems and software.

By clicking ‘I Agree’ you will allow the use of indicated cookies, device identifiers, web beacons or other similar technologies. Your settings can be changed in the browser on your device.

For certain purposes, legitimate interests may be relied on, rather than consent. You can read more about this in our Privacy and Cookie Policy.